CEC 2014 Haywood NORAM/Buff-Qualifier & Prologue | Zone4.ca



CEC 2014 Haywood NORAM/Buff-Qualifier & Prologue

Date: Jan 31, 2014
StartList
Location/Lieu: Nakkertok South Nordic Centre
Host Clubs Hôtes: Gatineau-Ottawa XC Clubs

Jury
TD / DT:  Shawn Sinclair 
ATD / DTA  Renée Thibeault 
Dir. Comp. Chief  Jim McCarthy 
CCC Dir. SFC  Dave Dyer 
Heure/Time: 10:00 am
Wind/Vent:  10km/hr Gusty Wind/Vent Dir: SW
Air Temp: -3 Snow/Neige T: -4
Weather/Météo: Sun/Cloud Snow/Neige: Groomed Powder

Juvenile (M) 3 km. Free  Prologue  
Bib Name CCC# CPL SFQ# FIS# DOB U23 Div Club Team Start Time
428 Antoine Laforte 31062 76.06 17022   1999 False QC C.N. Skibec   14:57:15.00
429 Antoine Cyr 30263 72.76 25779   1998 False QC Skinouk   14:57:30.00
430 Levi Nadlersmith 28191 72.22     1998 False MB Downtown Nordic MBST 14:57:45.00
431 Vincent Drolet 30225 72 16963   1998 False QC Fondeurs-Laurentides   14:58:00.00
432 Étienne Hébert 29287 71.94 24173   1998 False QC Montériski   14:58:15.00
433 Nicolas Beaulieu 27403 71.88 14585 3100333 1998 False QC Orford   14:58:30.00
434 Nicholas Schute 29281 71.84     1998 False ON Nakkertok   14:58:45.00
435 Riley Millar 29423 71.32     1998 False AB Canmore Nordic   14:59:00.00
436 Benjamin Turgeon 30240 70.79 13559   1998 False QC Skinouk   14:59:15.00
437 Siméon Lemay 30228 70.65 22715   1998 False QC Fondeurs-Laurentides   14:59:30.00
438 Mitchell Slobodian 29267 70.61     1998 False ON Nakkertok   14:59:45.00
439 Félix Longpré 27414 70.35 16957   1998 False QC Club Nordique MSA   15:00:00.00
440 Noah Thompson 29393 70.29     1998 False ON Georgian Nordic   15:00:15.00
441 Thomas Manktelow 29420 70.18     1998 False AB Canmore Nordic ADT 15:00:30.00
442 Jean-Christophe Barrette 27432 70.03 14637 3100339 1998 False QC Fondeurs-Laurentides   15:00:45.00
443 Reed Godfrey 29426 69.8     1998 False AB Canmore Nordic   15:01:00.00
444 Pierrick Sarthou 25578 69.7 14692   1999 False QC Montériski   15:01:15.00
445 Vincent Wolfe 31487 69.6 20564   1999 False QC Fondeurs-Laurentides   15:01:30.00
446 Antoine Barrette 31856 69.43 23960   1999 False QC Défi T.M.   15:01:45.00
447 Ty Godfrey 29425 69.26     1998 False AB Canmore Nordic ADT 15:02:00.00
448 Reid Norman 30891 68.68     1998 False ON Nakkertok   15:02:15.00
449 François Couture 31479 68.05 24262   1998 False QC Fondeurs-Laurentides   15:02:30.00
450 Émile Studnicki-Gizbert 31415 67.99 26897   1999 False QC Montériski   15:02:45.00
451 Mathieu Comeau 27095 67.99 15918   1998 False QC Club Nordique MSA   15:03:00.00
452 Mattias Shikatani 31841 67.88     1998 False ON Team Hardwood   15:03:15.00
453 Kyle Reinhardt 29299 67.54     1998 False ON Walden Nordic   15:03:30.00
454 Liam Powers-Kelly 31049 67.48     1999 False ON Nakkertok   15:03:45.00
455 Nicolas Lum 29271 67.24     1998 False ON Nakkertok   15:04:00.00
456 Pierre Grall-Johnson 31045 67.22     1999 False ON Nakkertok   15:04:15.00
457 Nick Cheney 31809 66.74     1999 False ON Nakkertok   15:04:30.00
458 Vincent Landry 31850 66.45 15812   1999 False QC C.N. Skibec   15:04:45.00
459 Dawson Lyon 29291 66.23     1998 False ON Nakkertok   15:05:00.00
460 Patrick McIlroy 27442 65.39     1998 False NF Avalon Nordic XCNL 15:05:15.00
461 Aidan Kirkham 31823 65.33     1998 False ON Kanata Nordic   15:05:30.00
462 Olivier Langelier 31848 65.25 18650   1998 False QC Rapido/Sept-Iles   15:05:45.00
463 Oliver Grocott 31043 65.09     1999 False ON Highland Trailblazers   15:06:00.00
464 Nicolas Moncion-Groulx 31042 64.63 19688   1999 False QC Nakkertok   15:06:15.00
465 Laurent Provencher 31485 64.49 23011   1998 False QC Fondeurs-Laurentides   15:06:30.00
466 Simon Chambers Crease 27488 64.33     1998 False AB Canmore Nordic   15:06:45.00
467 John Lindfors 31840 64.23 19000   1999 False QC Nakkertok   15:07:00.00
468 Noah Robert De Massy 31858 64.03 23961   1999 False QC Défi T.M.   15:07:15.00
469 Nicolas Nantais 31466 63.3 18649   1999 False QC Rapido/Sept-Iles   15:07:30.00
470 Kieran Lumb 29457 62.72     1998 False BC Hollyburn XC   15:07:45.00
471 Yan Savoie 30232 62.64 18637   1998 False QC Rapido/Sept-Iles   15:08:00.00
472 Mathieu Pelletier 31484 61.59 22606   1998 False QC Fondeurs-Laurentides   15:08:15.00
473 Matteo Reich 29478 61.58     1998 False ON Soo Finnish Nordic   15:08:30.00
474 Émile Chamard 31849 61.23 20039   1999 False QC C.N. Skibec   15:08:45.00
475 Ezra Pierce 31058 61.15     1999 False ON Nakkertok   15:09:00.00
476 Noah Taylor 27473 61.09     1998 False NF Avalon Nordic XCNL 15:09:15.00
477 Zachary Peloquin 31801 60.74 20266   1999 False QC Montériski   15:09:30.00
478 Evan Kealey 31044 59.03     1999 False ON Nakkertok   15:09:45.00
479 Simon Smith 30262 58.69     1998 False ON Georgian Bay   15:10:00.00
480 Teagan Harris 31046 58.51     1999 False ON Nakkertok   15:10:15.00
481 Eric Nussbaum 31041 57.46     1999 False ON Nakkertok   15:10:30.00
482 Robert Manstan 29424 56.68     1998 False NF Menihek Nordic XCNL 15:10:45.00
483 Matjaz Cigler 31796 56.48     1999 False ON Georgian Nordic   15:11:00.00
484 Loïc Dionne 31480 0 17567   1998 False QC Fondeurs-Laurentides   15:11:15.00
485 Thomas Grenier 31896 0 18309   1999 False QC Club Nordique MSA   15:11:30.00
486 Edward Petelle 31872 0 25551   1999 False QC Montériski   15:11:45.00
487 Graham Daly 31411 0     1999 False ON Nakkertok   15:12:00.00
488 Anton Demetrakopoulos 30218 0     1998 False ON Big Thunder Nordic   15:12:15.00
489 Cameron Roe 32889 0     1998 False MB Red River Nordic MBST 15:12:30.00
490 Simon Cash 30893 0     1998 False YT Whitehorse XC YTST 15:12:45.00
491 Jean-Félix Martineau 31867 0 27559   1999 False QC Club Nordique MSA   15:13:00.00
492 Aidan Carr 31481 0     1998 False ON Big Thunder Nordic   15:13:15.00
493 Nathan Johnstone 31798 0     1998 False ON Arrowhead Nordic   15:13:30.00
494 Raphaël Giguère 31868 0 16944   1998 False QC Club Nordique MSA   15:13:45.00
495 Frederick Serratore 30220 0     1999 False ON Big Thunder Nordic   15:14:00.00
496 Vincent Bouchard     25731   1998 False QC Défi T.M.   15:14:15.00
497 Nicholas Dolcetti Koros         1999 False ON Nakkertok   15:14:30.00
498 Jeremy Doiron         1998 False NB Nord-Roi NBST 15:14:45.00
499 Tristan Dugas         1998 False NB Nord-Roi NBST 15:15:00.00


Results are posted through an automated system by licenced clubs. For inquires about result corrections please contact the race organizer.

Copyright 2022 - Zone4 Systems zone4.ca       Privacy Policy     Delivery/Refund Policy     Terms of Service    Contact Zone4